User: anonymous   Login
Location: Unspecified
(0.0000°N, 0.0000°E)
Time: 18:05:09
(UTC+00:00)
Language:

LANDSAT 8 - Orbit

View from above orbital plane
View from above orbital plane
View from above satellite
View from above satellite

Ground track
Ground track

The orbit data is extracted from the following two-line orbital elements,

1 39084U 13008A   17060.14107066  .00000070  00000-0  25511-4 0  9990
2 39084  98.1931 132.1864 0001297  98.5280 261.6065 14.57119965215320
Epoch (UTC): 01 March 2017 03:23:08
Eccentricity: 0.0001297
inclination: 98.1931°
perigee height: 701 km
apogee height: 703 km
right ascension of ascending node: 132.1864°
argument of perigee: 98.5280°
revolutions per day: 14.57119965
mean anomaly at epoch: 261.6065°
orbit number at epoch: 21532

The dashed part of the orbit path shows where the satellite is in the earth's shadow,  

DLR